Meteo Giornale » Osservazioni meteo Italia » Roma Fiumicino

ore: 16:50 - Osservazioni Meteo Roma Fiumicino
Lat. 41° 48' N Lon. 12° 14' E Alt. 2 metri s.l.m.

sereno Europe/Rome

25 °C

Sereno

Temp. 24 Ore

18 °C

27 °C

Sud

14.8 Km/h

Dew point 17 °C

Umidità 61 %

Visibilità  10 Km

Il sole sorge alle ore 06:57

Il sole tramonta alle ore 19:09

Data e Ora Cielo e Fenomeni T °C DP °C Um. % Pres. hPa Vis. km Vento km/h
Oggi h: 16:50 sereno Sereno 25 17 61 1013 10 S 14.8
Oggi h: 16:20 sereno Sereno 25 17 61 1014 10 S 16.7
Oggi h: 15:50 poco_nuvoloso Poco Nuvoloso 26 17 57 1014 10 S 18.5
Oggi h: 15:20 poco_nuvoloso Poco Nuvoloso 27 18 57 1014 10 S 16.7
Oggi h: 14:50 nuvoloso Nuvoloso 27 17 54 1014 10 S 14.8
Oggi h: 13:50 poco_nuvoloso Poco Nuvoloso 26 16 54 1014 10 S 14.8
Oggi h: 13:20 nuvoloso Nuvoloso 26 17 57 1014 10 S 13
Oggi h: 12:50 nuvoloso Nuvoloso 25 19 69 1015 10 SE 14.8
Oggi h: 12:20 poco_nuvoloso Poco Nuvoloso 25 19 69 1015 10 S/SE 13
Oggi h: 11:50 poco_nuvoloso Poco Nuvoloso 23 18 73 1016 10 N 5.5
Oggi h: 11:20 poco_nuvoloso Poco Nuvoloso 23 18 73 1016 10 N 5.5
Oggi h: 10:50 poco_nuvoloso Poco Nuvoloso 22 18 78 1016 10 N 3.7
Oggi h: 10:20 poco_nuvoloso Poco Nuvoloso 21 18 82 1016 10 N 3.7
Oggi h: 09:50 sereno Sereno 21 18 82 1015 10 N 3.7
Oggi h: 09:20 coperto_pioggia Pioggia Debole 20 18 88 1015 10 E 7.4
Oggi h: 08:50 coperto_pioggia Pioggia Debole 20 17 82 1015 10 E/SE 13
Oggi h: 08:20 nuvoloso Nuvoloso 19 17 88 1015 10 E 11.1
Oggi h: 07:50 nuvoloso Nuvoloso 18 16 88 1015 10 N 5.5
Oggi h: 07:20 nuvoloso Nuvoloso 18 16 88 1015 10 SE 9.3
Oggi h: 06:50 nuvoloso_temporali Temporale con Pioggia Debole 18 17 93 1015 8 N 5.5
Oggi h: 06:20 nuvoloso_temporali Temporale con Pioggia Debole 18 16 88 1015 8 NE 9.3
Oggi h: 05:50 nuvoloso_temporali Temporale con Pioggia 20 16 77 1015 3 O/SO 22.2
Oggi h: 05:20 nuvoloso_temporali Temporale nelle Vicinanze 19 19 100 1015 10 N 3.7
Oggi h: 04:50 nuvoloso_temporali Temporale nelle Vicinanze 19 19 100 1015 10 E 7.4
Oggi h: 04:20 nuvoloso_temporali Temporale nelle Vicinanze 19 19 100 1015 10 E 7.4
Oggi h: 03:50 poco_nuvoloso Poco Nuvoloso 19 19 100 1015 10 E 7.4
Oggi h: 03:20 sereno Sereno 20 19 93 1015 10 N 5.5
Oggi h: 02:50 nuvoloso Nuvoloso 20 19 93 1015 10 N 5.5
Oggi h: 02:20 nuvoloso Nuvoloso 20 18 88 1015 10 E 7.4
Oggi h: 01:50 nuvoloso Nuvoloso 21 18 82 1015 10 SE 7.4
Oggi h: 01:20 nuvoloso Nuvoloso 21 20 94 1015 10 E 7.4
Oggi h: 00:50 nuvoloso Nuvoloso 21 19 88 1015 10 N 3.7
Oggi h: 00:20 nuvoloso Nuvoloso 21 19 88 1015 10 N 5.5
Ieri h: 23:50 nuvoloso Nuvoloso 22 19 83 1015 10 N 5.5
Ieri h: 23:20 nuvoloso Nuvoloso 22 20 88 1015 10 N 3.7
Ieri h: 22:50 poco_nuvoloso Poco Nuvoloso 22 20 88 1015 10 N 3.7
Ieri h: 22:20 nuvoloso Nuvoloso 22 20 88 1015 10 N 5.5
Ieri h: 21:50 poco_nuvoloso Poco Nuvoloso 23 20 83 1015 10 N 5.5
Ieri h: 21:20 nuvoloso Nuvoloso 23 20 83 1015 10 N 3.7
Ieri h: 20:50 poco_nuvoloso Poco Nuvoloso 23 20 83 1015 10 N 5.5
Ieri h: 20:20 nuvoloso Nuvoloso 24 21 83 1015 10 O 7.4
Ieri h: 19:50 nuvoloso Nuvoloso 24 20 78 1014 10 O/SO 11.1
Ieri h: 19:20 nuvoloso Nuvoloso 24 20 78 1014 10 O/SO 11.1
Ieri h: 18:50 nuvoloso Nuvoloso 25 20 73 1014 10 O 11.1
Ieri h: 17:50 nuvoloso Nuvoloso 26 20 69 1014 10 SO 16.7